| time (UTC) | temp F | wind direction | speed knots | gust knots | rain 1hr in | rain 24hr in | rain mn in | humidity % | barometer mb |
| 20260506234045 | 57 | 134 | 2.6 | 7.8 | 0.00 | 0.00 | 0.00 | 45 | 1009.9 |
| 20260506233545 | 57 | 97 | 2.6 | 7.8 | 0.00 | 0.00 | 0.00 | 45 | 1009.9 |
| 20260506233052 | 58 | 80 | 1.7 | 7.8 | 0.00 | 0.00 | 0.00 | 43 | 1009.9 |
| 20260506232544 | 58 | 62 | 2.6 | 7.8 | 0.00 | 0.00 | 0.00 | 42 | 1009.9 |
| 20260506232043 | 58 | 26 | 1.7 | 7.8 | 0.00 | 0.00 | 0.00 | 42 | 1009.8 |
| 20260506231608 | 58 | 35 | 1.7 | 7.8 | 0.00 | 0.00 | 0.00 | 41 | 1009.8 |
| 20260506231042 | 59 | 41 | 0.9 | 7.8 | 0.00 | 0.00 | 0.00 | 40 | 1009.8 |
| 20260506230543 | 59 | 31 | 1.7 | 7.8 | 0.00 | 0.00 | 0.00 | 39 | 1009.9 |
| 20260506230116 | 59 | 42 | 1.7 | 6.1 | 0.00 | 0.00 | 0.00 | 38 | 1009.8 |
| 20260506225545 | 59 | 71 | 0.9 | 3.5 | 0.00 | 0.00 | 0.00 | 37 | 1009.8 |
| 20260506225043 | 60 | 55 | 0.9 | 3.5 | 0.00 | 0.00 | 0.00 | 36 | 1009.8 |
| 20260506224603 | 60 | 112 | 0.0 | 3.5 | 0.00 | 0.00 | 0.00 | 36 | 1009.8 |
| 20260506224042 | 60 | 87 | 0.0 | 5.2 | 0.00 | 0.00 | 0.00 | 35 | 1009.8 |
| 20260506223545 | 60 | 0 | 0.9 | 5.2 | 0.00 | 0.00 | 0.00 | 34 | 1009.8 |
| 20260506223057 | 60 | 0 | 0.0 | 3.5 | 0.00 | 0.00 | 0.00 | 34 | 1009.8 |
| 20260506222543 | 61 | 161 | 1.7 | 3.5 | 0.00 | 0.00 | 0.00 | 33 | 1009.8 |
| 20260506222046 | 61 | 157 | 0.9 | 3.5 | 0.00 | 0.00 | 0.00 | 32 | 1009.7 |
| 20260506221610 | 61 | 116 | 0.0 | 3.5 | 0.00 | 0.00 | 0.00 | 32 | 1009.8 |
| 20260506221043 | 61 | 0 | 0.9 | 3.5 | 0.00 | 0.00 | 0.00 | 32 | 1009.8 |
| 20260506220546 | 61 | 78 | 0.9 | 2.6 | 0.00 | 0.00 | 0.00 | 32 | 1009.8 |
| 20260506220108 | 61 | 103 | 0.0 | 2.6 | 0.00 | 0.00 | 0.00 | 33 | 1009.8 |
| 20260506215544 | 61 | 85 | 0.0 | 2.6 | 0.00 | 0.00 | 0.00 | 33 | 1009.8 |
| 20260506215044 | 61 | 110 | 0.0 | 1.7 | 0.00 | 0.00 | 0.00 | 33 | 1009.8 |
| 20260506214553 | 61 | 95 | 0.0 | 2.6 | 0.00 | 0.00 | 0.00 | 33 | 1009.9 |
| 20260506214044 | 61 | 0 | 0.9 | 2.6 | 0.00 | 0.00 | 0.00 | 33 | 1009.8 |
| 20260506213543 | 62 | 0 | 0.0 | 1.7 | 0.00 | 0.00 | 0.00 | 33 | 1009.9 |
| 20260506213110 | 62 | 0 | 0.0 | 1.7 | 0.00 | 0.00 | 0.00 | 33 | 1009.9 |
| 20260506212545 | 62 | 0 | 0.0 | 1.7 | 0.00 | 0.00 | 0.00 | 33 | 1009.9 |
| 20260506212044 | 62 | 84 | 0.0 | 1.7 | 0.00 | 0.00 | 0.00 | 32 | 1009.9 |
| 20260506211550 | 62 | 84 | 0.0 | 2.6 | 0.00 | 0.00 | 0.00 | 32 | 1009.9 |
| 20260506211044 | 62 | 0 | 0.0 | 2.6 | 0.00 | 0.00 | 0.00 | 32 | 1009.9 |
| 20260506210544 | 62 | 84 | 0.0 | 2.6 | 0.00 | 0.00 | 0.00 | 32 | 1009.9 |
| 20260506210104 | 62 | 0 | 0.0 | 1.7 | 0.00 | 0.00 | 0.00 | 31 | 1009.9 |
| 20260506205542 | 62 | 118 | 0.0 | 1.7 | 0.00 | 0.00 | 0.00 | 31 | 1009.9 |
| 20260506205042 | 62 | 0 | 0.0 | 1.7 | 0.00 | 0.00 | 0.00 | 31 | 1009.9 |
| 20260506204601 | 62 | 0 | 0.0 | 1.7 | 0.00 | 0.00 | 0.00 | 30 | 1009.9 |
| 20260506204041 | 62 | 0 | 0.0 | 1.7 | 0.00 | 0.00 | 0.00 | 30 | 1009.9 |
| 20260506203545 | 62 | 61 | 0.0 | 1.7 | 0.00 | 0.00 | 0.00 | 30 | 1009.8 |
| 20260506203052 | 62 | 0 | 0.0 | 1.7 | 0.00 | 0.00 | 0.00 | 31 | 1009.8 |
| 20260506202544 | 63 | 0 | 0.0 | 1.7 | 0.00 | 0.00 | 0.00 | 30 | 1009.8 |
| 20260506202041 | 63 | 0 | 0.0 | 2.6 | 0.00 | 0.00 | 0.00 | 29 | 1009.7 |
| 20260506201555 | 63 | 0 | 0.0 | 2.6 | 0.00 | 0.00 | 0.00 | 29 | 1009.7 |
| 20260506201048 | 63 | 0 | 0.0 | 2.6 | 0.00 | 0.00 | 0.00 | 28 | 1009.7 |
| 20260506200546 | 63 | 0 | 0.0 | 1.7 | 0.00 | 0.00 | 0.00 | 28 | 1009.7 |
| 20260506200058 | 63 | 93 | 0.0 | 1.7 | 0.00 | 0.00 | 0.00 | 28 | 1009.7 |
| 20260506195548 | 63 | 0 | 0.0 | 1.7 | 0.00 | 0.00 | 0.00 | 27 | 1009.7 |
| 20260506195045 | 63 | 0 | 0.0 | 1.7 | 0.00 | 0.00 | 0.00 | 27 | 1009.5 |
| 20260506194553 | 63 | 0 | 0.0 | 1.7 | 0.00 | 0.00 | 0.00 | 27 | 1009.5 |
| 20260506194046 | 63 | 0 | 0.0 | 2.6 | 0.00 | 0.00 | 0.00 | 28 | 1009.5 |
| 20260506193542 | 63 | 39 | 0.0 | 2.6 | 0.00 | 0.00 | 0.00 | 27 | 1009.5 |
| 20260506193052 | 63 | 46 | 0.9 | 2.6 | 0.00 | 0.00 | 0.00 | 27 | 1009.4 |
| 20260506192545 | 64 | 46 | 0.0 | 1.7 | 0.00 | 0.00 | 0.00 | 28 | 1009.5 |
| 20260506192045 | 64 | 155 | 0.0 | 1.7 | 0.00 | 0.00 | 0.00 | 28 | 1009.5 |
| 20260506191552 | 64 | 0 | 0.0 | 1.7 | 0.00 | 0.00 | 0.00 | 28 | 1009.5 |
| 20260506191045 | 64 | 155 | 0.0 | 4.3 | 0.00 | 0.00 | 0.00 | 28 | 1009.4 |
| 20260506190547 | 64 | 0 | 1.7 | 4.3 | 0.00 | 0.00 | 0.00 | 26 | 1009.4 |
| 20260506190051 | 64 | 14 | 0.9 | 1.7 | 0.00 | 0.00 | 0.00 | 26 | 1009.4 |
| 20260506185544 | 64 | 0 | 0.0 | 2.6 | 0.00 | 0.00 | 0.00 | 26 | 1009.4 |
| 20260506185045 | 64 | 0 | 0.0 | 2.6 | 0.00 | 0.00 | 0.00 | 26 | 1009.3 |
| 20260506184613 | 64 | 148 | 0.9 | 3.5 | 0.00 | 0.00 | 0.00 | 26 | 1009.4 |
| 20260506184045 | 64 | 179 | 1.7 | 3.5 | 0.00 | 0.00 | 0.00 | 25 | 1009.3 |
| 20260506183549 | 64 | 206 | 0.9 | 3.5 | 0.00 | 0.00 | 0.00 | 25 | 1009.3 |
| 20260506183055 | 65 | 149 | 0.0 | 1.7 | 0.00 | 0.00 | 0.00 | 25 | 1009.3 |
| 20260506182545 | 65 | 137 | 0.0 | 3.5 | 0.00 | 0.00 | 0.00 | 26 | 1009.3 |
| 20260506182042 | 65 | 137 | 0.9 | 3.5 | 0.00 | 0.00 | 0.00 | 26 | 1009.4 |
| 20260506181552 | 65 | 184 | 0.9 | 2.6 | 0.00 | 0.00 | 0.00 | 25 | 1009.3 |
| 20260506181045 | 65 | 167 | 0.9 | 3.5 | 0.00 | 0.00 | 0.00 | 25 | 1009.3 |
| 20260506180545 | 65 | 100 | 0.0 | 3.5 | 0.00 | 0.00 | 0.00 | 25 | 1009.4 |
| 20260506180056 | 65 | 176 | 0.9 | 4.3 | 0.00 | 0.00 | 0.00 | 26 | 1009.3 |
| 20260506175544 | 65 | 142 | 0.9 | 4.3 | 0.00 | 0.00 | 0.00 | 26 | 1009.3 |
| 20260506175047 | 65 | 49 | 0.9 | 5.2 | 0.00 | 0.00 | 0.00 | 26 | 1009.4 |
| 20260506174552 | 66 | 159 | 0.9 | 5.2 | 0.00 | 0.00 | 0.00 | 26 | 1009.4 |
| 20260506174043 | 66 | 126 | 1.7 | 6.1 | 0.00 | 0.00 | 0.00 | 26 | 1009.4 |
| 20260506173544 | 66 | 1 | 1.7 | 6.1 | 0.00 | 0.00 | 0.00 | 26 | 1009.4 |
| 20260506173056 | 66 | 0 | 1.7 | 6.1 | 0.00 | 0.00 | 0.00 | 27 | 1009.5 |
| 20260506172543 | 66 | 120 | 1.7 | 6.1 | 0.00 | 0.00 | 0.00 | 27 | 1009.5 |
| 20260506172047 | 65 | 128 | 1.7 | 5.2 | 0.00 | 0.00 | 0.00 | 27 | 1009.4 |
| 20260506171607 | 66 | 169 | 1.7 | 6.1 | 0.00 | 0.00 | 0.00 | 27 | 1009.5 |
| 20260506171043 | 65 | 109 | 2.6 | 7.8 | 0.00 | 0.00 | 0.00 | 28 | 1009.5 |
| 20260506170544 | 65 | 218 | 3.5 | 7.8 | 0.00 | 0.00 | 0.00 | 28 | 1009.5 |
| 20260506170056 | 65 | 172 | 4.3 | 7.8 | 0.00 | 0.00 | 0.00 | 27 | 1009.4 |
| 20260506165543 | 66 | 172 | 2.6 | 6.1 | 0.00 | 0.00 | 0.00 | 26 | 1009.6 |
| 20260506165043 | 66 | 351 | 0.9 | 5.2 | 0.00 | 0.00 | 0.00 | 28 | 1009.5 |
| 20260506164552 | 65 | 199 | 0.9 | 8.7 | 0.00 | 0.00 | 0.00 | 28 | 1009.7 |
| 20260506164042 | 65 | 204 | 2.6 | 8.7 | 0.00 | 0.00 | 0.00 | 28 | 1009.7 |
| 20260506163542 | 65 | 174 | 1.7 | 6.1 | 0.00 | 0.00 | 0.00 | 28 | 1009.7 |
| 20260506163052 | 65 | 253 | 1.7 | 6.1 | 0.00 | 0.00 | 0.00 | 28 | 1009.7 |
| 20260506162544 | 65 | 217 | 2.6 | 6.1 | 0.00 | 0.00 | 0.00 | 27 | 1009.7 |
| 20260506162044 | 65 | 155 | 2.6 | 6.1 | 0.00 | 0.00 | 0.00 | 28 | 1009.8 |
| 20260506161549 | 66 | 0 | 1.7 | 4.3 | 0.00 | 0.00 | 0.00 | 27 | 1009.7 |
| 20260506161041 | 67 | 8 | 0.9 | 3.5 | 0.00 | 0.00 | 0.00 | 27 | 1009.7 |
| 20260506160543 | 68 | 243 | 0.0 | 3.5 | 0.00 | 0.00 | 0.00 | 26 | 1009.8 |
| 20260506155542 | 66 | 266 | 0.9 | 6.1 | 0.00 | 0.00 | 0.00 | 28 | 1009.8 |
| 20260506155043 | 65 | 265 | 0.9 | 6.1 | 0.00 | 0.00 | 0.00 | 28 | 1009.8 |
| 20260506154553 | 65 | 236 | 0.9 | 5.2 | 0.00 | 0.00 | 0.00 | 28 | 1009.9 |
| 20260506154046 | 65 | 156 | 0.9 | 5.2 | 0.00 | 0.00 | 0.00 | 30 | 1009.9 |
| 20260506153545 | 65 | 0 | 1.7 | 6.1 | 0.00 | 0.00 | 0.00 | 30 | 1009.9 |
| 20260506153055 | 64 | 71 | 1.7 | 6.1 | 0.00 | 0.00 | 0.00 | 30 | 1009.9 |
| 20260506152544 | 65 | 147 | 1.7 | 4.3 | 0.00 | 0.00 | 0.00 | 30 | 1010.0 |
| 20260506152045 | 65 | 194 | 1.7 | 7.8 | 0.00 | 0.00 | 0.00 | 31 | 1010.0 |
| 20260506151551 | 65 | 192 | 2.6 | 7.8 | 0.00 | 0.00 | 0.00 | 31 | 1010.0 |
| 20260506151042 | 65 | 0 | 1.7 | 7.8 | 0.00 | 0.00 | 0.00 | 31 | 1010.1 |
| 20260506150543 | 65 | 168 | 3.5 | 7.0 | 0.00 | 0.00 | 0.00 | 30 | 1010.2 |
| 20260506150053 | 66 | 204 | 0.0 | 1.7 | 0.00 | 0.00 | 0.00 | 28 | 1010.2 |
| 20260506145545 | 65 | 259 | 0.0 | 7.0 | 0.00 | 0.00 | 0.00 | 31 | 1010.3 |
| 20260506145045 | 64 | 273 | 1.7 | 7.0 | 0.00 | 0.00 | 0.00 | 31 | 1010.4 |
| 20260506144602 | 63 | 135 | 1.7 | 6.1 | 0.00 | 0.00 | 0.00 | 33 | 1010.4 |
| 20260506144045 | 64 | 180 | 2.6 | 6.1 | 0.00 | 0.00 | 0.00 | 32 | 1010.5 |
| 20260506143545 | 64 | 147 | 0.9 | 5.2 | 0.00 | 0.00 | 0.00 | 33 | 1010.6 |
| 20260506143051 | 64 | 230 | 0.9 | 5.2 | 0.00 | 0.00 | 0.00 | 33 | 1010.7 |
| 20260506142545 | 63 | 14 | 1.7 | 6.1 | 0.00 | 0.00 | 0.00 | 33 | 1010.7 |
| 20260506142042 | 63 | 12 | 3.5 | 6.1 | 0.00 | 0.00 | 0.00 | 32 | 1010.8 |
| 20260506141549 | 65 | 5 | 1.7 | 4.3 | 0.00 | 0.00 | 0.00 | 32 | 1010.8 |
| 20260506141045 | 66 | 224 | 0.9 | 4.3 | 0.00 | 0.00 | 0.00 | 32 | 1010.9 |
| 20260506140545 | 67 | 132 | 0.9 | 6.1 | 0.00 | 0.00 | 0.00 | 31 | 1010.9 |
| 20260506140053 | 65 | 307 | 1.7 | 6.1 | 0.00 | 0.00 | 0.00 | 34 | 1010.9 |
| 20260506135542 | 66 | 213 | 0.9 | 3.5 | 0.00 | 0.00 | 0.00 | 32 | 1011.0 |
| 20260506135043 | 66 | 240 | 0.9 | 3.5 | 0.00 | 0.00 | 0.00 | 33 | 1011.0 |
| 20260506134552 | 66 | 259 | 0.0 | 5.2 | 0.00 | 0.00 | 0.00 | 33 | 1011.0 |
| 20260506134043 | 64 | 262 | 0.9 | 5.2 | 0.00 | 0.00 | 0.00 | 35 | 1011.1 |
| 20260506133542 | 63 | 213 | 2.6 | 5.2 | 0.00 | 0.00 | 0.00 | 36 | 1011.2 |
| 20260506133052 | 62 | 225 | 1.7 | 4.3 | 0.00 | 0.00 | 0.00 | 36 | 1011.2 |
| 20260506132545 | 62 | 183 | 0.9 | 3.5 | 0.00 | 0.00 | 0.00 | 36 | 1011.3 |
| 20260506132044 | 62 | 351 | 0.0 | 3.5 | 0.00 | 0.00 | 0.00 | 37 | 1011.3 |
| 20260506131612 | 62 | 101 | 0.9 | 4.3 | 0.00 | 0.00 | 0.00 | 37 | 1011.3 |
| 20260506131045 | 62 | 0 | 0.9 | 4.3 | 0.00 | 0.00 | 0.00 | 37 | 1011.3 |
| 20260506130544 | 63 | 331 | 0.9 | 4.3 | 0.00 | 0.00 | 0.00 | 36 | 1011.3 |
| 20260506130055 | 61 | 0 | 0.0 | 3.5 | 0.00 | 0.00 | 0.00 | 39 | 1011.4 |
| 20260506125545 | 60 | 357 | 0.9 | 4.3 | 0.00 | 0.00 | 0.00 | 40 | 1011.5 |
| 20260506125044 | 60 | 323 | 1.7 | 4.3 | 0.00 | 0.00 | 0.00 | 40 | 1011.5 |
| 20260506124550 | 60 | 319 | 1.7 | 3.5 | 0.00 | 0.00 | 0.00 | 40 | 1011.6 |
| 20260506124044 | 61 | 330 | 1.7 | 3.5 | 0.00 | 0.00 | 0.00 | 40 | 1011.7 |
| 20260506123542 | 61 | 324 | 0.0 | 3.5 | 0.00 | 0.00 | 0.00 | 40 | 1011.6 |
| 20260506123055 | 60 | 338 | 0.9 | 4.3 | 0.00 | 0.00 | 0.00 | 41 | 1011.7 |
| 20260506122542 | 60 | 336 | 1.7 | 7.0 | 0.00 | 0.00 | 0.00 | 41 | 1011.8 |
| 20260506122042 | 60 | 37 | 0.9 | 7.0 | 0.00 | 0.00 | 0.00 | 42 | 1011.8 |
| 20260506121557 | 60 | 341 | 2.6 | 7.0 | 0.00 | 0.00 | 0.00 | 41 | 1011.8 |
| 20260506121047 | 60 | 351 | 1.7 | 7.8 | 0.00 | 0.00 | 0.00 | 40 | 1011.8 |
| 20260506120542 | 61 | 94 | 4.3 | 7.8 | 0.00 | 0.00 | 0.00 | 39 | 1011.8 |
| 20260506120054 | 62 | 30 | 0.9 | 4.3 | 0.00 | 0.00 | 0.00 | 40 | 1011.9 |
| 20260506115547 | 60 | 74 | 0.9 | 3.5 | 0.00 | 0.00 | 0.00 | 41 | 1011.9 |
| 20260506115043 | 60 | 39 | 0.9 | 4.3 | 0.00 | 0.00 | 0.00 | 42 | 1012.0 |
| 20260506114553 | 60 | 2 | 0.0 | 4.3 | 0.00 | 0.00 | 0.00 | 41 | 1012.1 |
| 20260506114045 | 60 | 41 | 1.7 | 7.0 | 0.00 | 0.00 | 0.00 | 42 | 1012.1 |
| 20260506113543 | 60 | 331 | 1.7 | 7.0 | 0.00 | 0.00 | 0.00 | 41 | 1012.0 |
| 20260506113049 | 61 | 330 | 0.0 | 2.6 | 0.00 | 0.00 | 0.00 | 43 | 1012.1 |
| 20260506112545 | 60 | 0 | 0.9 | 2.6 | 0.00 | 0.00 | 0.00 | 42 | 1012.2 |
| 20260506112044 | 60 | 0 | 0.9 | 5.2 | 0.00 | 0.00 | 0.00 | 43 | 1012.3 |
| 20260506111552 | 59 | 288 | 0.0 | 6.1 | 0.00 | 0.00 | 0.00 | 43 | 1012.3 |
| 20260506111043 | 59 | 299 | 2.6 | 6.1 | 0.00 | 0.00 | 0.00 | 43 | 1012.3 |
| 20260506110543 | 60 | 322 | 0.9 | 7.8 | 0.00 | 0.00 | 0.00 | 42 | 1012.3 |
| 20260506110046 | 60 | 360 | 1.7 | 7.8 | 0.00 | 0.00 | 0.00 | 43 | 1012.3 |
| 20260506105544 | 60 | 24 | 0.0 | 7.0 | 0.00 | 0.00 | 0.00 | 44 | 1012.4 |
| 20260506105044 | 58 | 301 | 2.6 | 7.0 | 0.00 | 0.00 | 0.00 | 45 | 1012.4 |
| 20260506104554 | 57 | 55 | 1.7 | 5.2 | 0.00 | 0.00 | 0.00 | 45 | 1012.4 |
| 20260506104043 | 58 | 37 | 0.0 | 3.5 | 0.00 | 0.00 | 0.00 | 46 | 1012.5 |
| 20260506103544 | 58 | 235 | 0.9 | 5.2 | 0.00 | 0.00 | 0.00 | 45 | 1012.5 |
| 20260506103052 | 58 | 236 | 1.7 | 6.1 | 0.00 | 0.00 | 0.00 | 46 | 1012.7 |
| 20260506102544 | 58 | 0 | 1.7 | 6.1 | 0.00 | 0.00 | 0.00 | 46 | 1012.7 |
| 20260506102043 | 58 | 0 | 0.9 | 4.3 | 0.00 | 0.00 | 0.00 | 45 | 1012.8 |
| 20260506101549 | 58 | 133 | 0.9 | 4.3 | 0.00 | 0.00 | 0.00 | 46 | 1012.8 |
| 20260506101043 | 58 | 97 | 0.9 | 5.2 | 0.00 | 0.00 | 0.00 | 45 | 1012.9 |
| 20260506100544 | 59 | 136 | 2.6 | 7.0 | 0.00 | 0.00 | 0.00 | 46 | 1013.0 |
| 20260506100103 | 58 | 113 | 1.7 | 8.7 | 0.00 | 0.00 | 0.00 | 47 | 1013.0 |
| 20260506095544 | 57 | 22 | 3.5 | 9.6 | 0.00 | 0.00 | 0.00 | 49 | 1013.0 |
| 20260506095044 | 57 | 359 | 5.2 | 9.6 | 0.00 | 0.00 | 0.00 | 48 | 1012.8 |
| 20260506094549 | 57 | 12 | 0.9 | 7.0 | 0.00 | 0.00 | 0.00 | 48 | 1012.7 |
| 20260506094042 | 56 | 182 | 1.7 | 8.7 | 0.00 | 0.00 | 0.00 | 49 | 1012.6 |
| 20260506093543 | 56 | 197 | 0.9 | 8.7 | 0.00 | 0.00 | 0.00 | 50 | 1012.5 |
| 20260506093048 | 56 | 193 | 2.6 | 8.7 | 0.00 | 0.00 | 0.00 | 51 | 1012.6 |
| 20260506092543 | 55 | 0 | 1.7 | 8.7 | 0.00 | 0.00 | 0.00 | 52 | 1012.5 |
| 20260506092047 | 55 | 80 | 2.6 | 7.0 | 0.00 | 0.00 | 0.00 | 51 | 1012.7 |
| 20260506091555 | 56 | 149 | 1.7 | 7.0 | 0.00 | 0.00 | 0.00 | 49 | 1012.7 |
| 20260506091043 | 58 | 358 | 0.9 | 5.2 | 0.00 | 0.00 | 0.00 | 48 | 1012.8 |
| 20260506090544 | 57 | 9 | 0.9 | 6.1 | 0.00 | 0.00 | 0.00 | 48 | 1012.7 |
| 20260506090048 | 55 | 36 | 1.7 | 6.1 | 0.00 | 0.00 | 0.00 | 52 | 1012.7 |
| 20260506085543 | 56 | 358 | 1.7 | 7.8 | 0.00 | 0.00 | 0.00 | 50 | 1012.7 |
| 20260506085044 | 55 | 213 | 0.9 | 7.8 | 0.00 | 0.00 | 0.00 | 53 | 1012.7 |
| 20260506084548 | 54 | 161 | 2.6 | 7.0 | 0.00 | 0.00 | 0.00 | 52 | 1012.6 |
| 20260506084045 | 54 | 72 | 2.6 | 6.1 | 0.00 | 0.00 | 0.00 | 53 | 1012.6 |
| 20260506083545 | 56 | 164 | 0.0 | 7.8 | 0.00 | 0.00 | 0.00 | 51 | 1012.6 |
| 20260506083050 | 55 | 22 | 1.7 | 7.8 | 0.00 | 0.00 | 0.00 | 53 | 1012.6 |
| 20260506082545 | 54 | 23 | 1.7 | 8.7 | 0.00 | 0.00 | 0.00 | 54 | 1012.7 |
| 20260506082044 | 54 | 35 | 3.5 | 8.7 | 0.00 | 0.00 | 0.00 | 54 | 1012.6 |
| 20260506081551 | 54 | 37 | 4.3 | 8.7 | 0.00 | 0.00 | 0.00 | 54 | 1012.6 |
| 20260506081045 | 55 | 9 | 0.9 | 4.3 | 0.00 | 0.00 | 0.00 | 52 | 1012.7 |
| 20260506080544 | 54 | 22 | 1.7 | 5.2 | 0.00 | 0.00 | 0.00 | 53 | 1012.7 |
| 20260506073055 | 52 | 355 | 2.6 | 5.2 | 0.00 | 0.00 | 0.00 | 57 | 1012.8 |
| 20260506072543 | 53 | 341 | 1.7 | 4.3 | 0.00 | 0.00 | 0.00 | 58 | 1012.8 |
| 20260506072045 | 52 | 100 | 0.0 | 4.3 | 0.00 | 0.00 | 0.00 | 58 | 1012.8 |
| 20260506071600 | 51 | 346 | 1.7 | 4.3 | 0.00 | 0.00 | 0.00 | 60 | 1012.7 |
| 20260506071043 | 51 | 35 | 0.9 | 4.3 | 0.00 | 0.00 | 0.00 | 61 | 1012.8 |
| 20260506070548 | 50 | 128 | 0.9 | 4.3 | 0.00 | 0.00 | 0.00 | 61 | 1012.6 |
| 20260506062044 | 50 | 19 | 0.9 | 3.5 | 0.00 | 0.00 | 0.00 | 63 | 1012.4 |
| 20260506061555 | 49 | 16 | 0.9 | 3.5 | 0.00 | 0.00 | 0.00 | 64 | 1012.3 |
| 20260506061044 | 49 | 351 | 0.9 | 3.5 | 0.00 | 0.00 | 0.00 | 65 | 1012.3 |
| 20260506060543 | 49 | 0 | 0.0 | 3.5 | 0.00 | 0.00 | 0.00 | 66 | 1012.3 |
| 20260506051044 | 48 | 14 | 0.9 | 2.6 | 0.00 | 0.00 | 0.00 | 65 | 1012.0 |
| 20260506050545 | 48 | 18 | 0.0 | 3.5 | 0.00 | 0.00 | 0.00 | 65 | 1011.9 |
| 20260506045043 | 49 | 0 | 0.0 | 2.6 | 0.00 | 0.00 | 0.00 | 66 | 1011.7 |
| 20260506044550 | 48 | 0 | 0.0 | 2.6 | 0.00 | 0.00 | 0.00 | 66 | 1011.6 |
| 20260506044042 | 48 | 35 | 0.9 | 2.6 | 0.00 | 0.00 | 0.00 | 66 | 1011.6 |
| 20260506043542 | 48 | 66 | 0.0 | 3.5 | 0.00 | 0.00 | 0.00 | 66 | 1011.7 |
| 20260506043050 | 49 | 41 | 0.9 | 3.5 | 0.00 | 0.00 | 0.00 | 65 | 1011.7 |
| 20260506042544 | 49 | 28 | 0.9 | 3.5 | 0.00 | 0.00 | 0.00 | 65 | 1011.8 |
| 20260506042047 | 49 | 60 | 0.0 | 3.5 | 0.00 | 0.00 | 0.00 | 65 | 1011.6 |
| 20260506041555 | 49 | 51 | 0.0 | 3.5 | 0.00 | 0.00 | 0.00 | 65 | 1011.7 |
| 20260506041041 | 49 | 71 | 0.0 | 3.5 | 0.00 | 0.00 | 0.00 | 65 | 1011.7 |
| 20260506040545 | 49 | 48 | 0.0 | 3.5 | 0.00 | 0.00 | 0.00 | 65 | 1011.6 |
| 20260506040055 | 49 | 22 | 0.9 | 1.7 | 0.00 | 0.00 | 0.00 | 64 | 1011.8 |
| 20260506035542 | 49 | 135 | 0.0 | 3.5 | 0.00 | 0.00 | 0.00 | 64 | 1011.8 |
| 20260506035045 | 49 | 0 | 0.0 | 3.5 | 0.00 | 0.00 | 0.00 | 64 | 1011.8 |
| 20260506034550 | 49 | 122 | 0.9 | 3.5 | 0.00 | 0.00 | 0.00 | 64 | 1011.8 |
| 20260506034043 | 49 | 83 | 0.9 | 3.5 | 0.00 | 0.00 | 0.00 | 64 | 1011.8 |
| 20260506033544 | 49 | 127 | 0.9 | 4.3 | 0.00 | 0.00 | 0.00 | 64 | 1011.8 |
| 20260506033049 | 49 | 80 | 0.9 | 4.3 | 0.00 | 0.00 | 0.00 | 64 | 1011.8 |
| 20260506032544 | 49 | 122 | 1.7 | 4.3 | 0.00 | 0.00 | 0.00 | 64 | 1012.0 |
| 20260506032043 | 50 | 57 | 1.7 | 4.3 | 0.00 | 0.00 | 0.00 | 63 | 1011.9 |
| 20260506031551 | 50 | 159 | 1.7 | 5.2 | 0.00 | 0.00 | 0.00 | 62 | 1011.8 |
| 20260506031046 | 50 | 109 | 1.7 | 5.2 | 0.00 | 0.00 | 0.00 | 62 | 1011.8 |
| 20260506030545 | 50 | 22 | 0.0 | 6.1 | 0.00 | 0.00 | 0.00 | 62 | 1011.8 |
| 20260506030100 | 50 | 0 | 1.7 | 6.1 | 0.00 | 0.00 | 0.00 | 62 | 1011.8 |
| 20260506025544 | 50 | 145 | 1.7 | 6.1 | 0.00 | 0.00 | 0.00 | 61 | 1011.8 |
| 20260506025044 | 51 | 129 | 1.7 | 4.3 | 0.00 | 0.00 | 0.00 | 61 | 1011.9 |
| 20260506024557 | 51 | 149 | 0.0 | 3.5 | 0.00 | 0.00 | 0.00 | 61 | 1011.8 |
| 20260506024044 | 51 | 131 | 0.9 | 5.2 | 0.00 | 0.00 | 0.00 | 60 | 1011.9 |
| 20260506023545 | 51 | 0 | 0.9 | 5.2 | 0.00 | 0.00 | 0.00 | 60 | 1011.9 |
| 20260506023050 | 51 | 109 | 0.0 | 4.3 | 0.00 | 0.00 | 0.00 | 60 | 1012.0 |
| 20260506022543 | 51 | 61 | 0.9 | 4.3 | 0.00 | 0.00 | 0.00 | 60 | 1012.0 |
| 20260506022044 | 51 | 82 | 0.0 | 7.0 | 0.00 | 0.00 | 0.00 | 60 | 1012.0 |
| 20260506021548 | 51 | 81 | 0.9 | 7.0 | 0.00 | 0.00 | 0.00 | 59 | 1012.0 |
| 20260506021044 | 51 | 155 | 1.7 | 7.0 | 0.00 | 0.00 | 0.00 | 59 | 1012.0 |
| 20260506020544 | 51 | 134 | 1.7 | 5.2 | 0.00 | 0.00 | 0.00 | 59 | 1011.9 |
| 20260506020048 | 51 | 112 | 2.6 | 5.2 | 0.00 | 0.00 | 0.00 | 59 | 1011.9 |
| 20260506015545 | 51 | 137 | 1.7 | 4.3 | 0.00 | 0.00 | 0.00 | 58 | 1011.9 |
| 20260506015046 | 51 | 129 | 1.7 | 6.1 | 0.00 | 0.00 | 0.00 | 58 | 1011.9 |
| 20260506014600 | 51 | 0 | 0.9 | 6.1 | 0.00 | 0.00 | 0.00 | 58 | 1011.9 |
| 20260506014044 | 51 | 92 | 0.9 | 5.2 | 0.00 | 0.00 | 0.00 | 58 | 1011.9 |
| 20260506013616 | 51 | 0 | 0.9 | 5.2 | 0.00 | 0.00 | 0.00 | 58 | 1012.0 |
| 20260506013056 | 51 | 125 | 1.7 | 4.3 | 0.00 | 0.00 | 0.00 | 58 | 1012.0 |
| 20260506012544 | 51 | 166 | 1.7 | 4.3 | 0.00 | 0.00 | 0.00 | 58 | 1012.1 |
| 20260506012046 | 52 | 105 | 1.7 | 4.3 | 0.00 | 0.00 | 0.00 | 58 | 1012.1 |
| 20260506011558 | 52 | 132 | 1.7 | 4.3 | 0.00 | 0.00 | 0.00 | 58 | 1012.3 |
| 20260506011049 | 52 | 0 | 0.0 | 4.3 | 0.00 | 0.00 | 0.00 | 58 | 1012.3 |
| 20260506010548 | 52 | 191 | 0.0 | 4.3 | 0.00 | 0.00 | 0.00 | 57 | 1012.3 |
| 20260506010105 | 52 | 182 | 0.9 | 4.3 | 0.00 | 0.00 | 0.00 | 57 | 1012.2 |
| 20260506005546 | 52 | 180 | 2.6 | 4.3 | 0.00 | 0.00 | 0.00 | 57 | 1012.3 |
| 20260506005046 | 52 | 186 | 0.9 | 4.3 | 0.00 | 0.00 | 0.00 | 57 | 1012.3 |
| 20260506004553 | 52 | 183 | 0.0 | 5.2 | 0.00 | 0.00 | 0.00 | 57 | 1012.4 |
| 20260506004044 | 52 | 130 | 2.6 | 5.2 | 0.00 | 0.00 | 0.00 | 57 | 1012.4 |
| 20260506003547 | 52 | 134 | 0.9 | 4.3 | 0.00 | 0.00 | 0.00 | 57 | 1012.4 |
| 20260506003049 | 52 | 158 | 0.9 | 4.3 | 0.00 | 0.00 | 0.00 | 57 | 1012.5 |
| 20260506002546 | 52 | 166 | 0.9 | 4.3 | 0.00 | 0.00 | 0.00 | 57 | 1012.4 |
| 20260506002044 | 52 | 119 | 0.9 | 3.5 | 0.00 | 0.00 | 0.00 | 58 | 1012.4 |
| 20260506001553 | 52 | 0 | 1.7 | 3.5 | 0.00 | 0.00 | 0.00 | 58 | 1012.5 |
| 20260506001048 | 52 | 87 | 0.9 | 5.2 | 0.00 | 0.00 | 0.00 | 58 | 1012.5 |
| 20260506000547 | 52 | 164 | 0.0 | 5.2 | 0.00 | 0.00 | 0.00 | 58 | 1012.5 |
| 20260506000051 | 52 | 124 | 1.7 | 5.2 | 0.00 | 0.00 | 0.00 | 58 | 1012.5 |
| 20260505235549 | 52 | 128 | 0.9 | 5.2 | 0.00 | 0.00 | 0.00 | 58 | 1012.5 |
| 20260505235047 | 52 | 87 | 0.9 | 5.2 | 0.00 | 0.00 | 0.00 | 57 | 1012.5 |
| 20260505234549 | 52 | 98 | 0.9 | 6.1 | 0.00 | 0.00 | 0.00 | 57 | 1012.5 |